Terminal Aerodrome Forecast
Issued by NWS Shreveport, LA

Home | Current Version | Previous Version | Text Only | Print | Product List | Glossary On
Versions: 1 2 3 4 5 6 7 8 9 10 11 12 13 14 15 16
000
FTUS44 KSHV 271700
TAFTXK
TAF
KTXK 271720Z 2718/2818 10007KT P6SM SCT250
     FM280100 13003KT P6SM FEW050 SCT250
     FM280600 13003KT P6SM SCT250
     FM281330 15005KT P6SM FEW050=

USA.gov is the U.S. government's official web portal to all federal, state and local government web resources and services.